Saguache, CO

10:29 AM MDT on August 20, 2017 (GMT -0600)
Saguache

Weather History for K04V - October, 2013

Change the Weather History Date:

Saturday, October 26, 2013

  Actual Average (KALS) Record (KALS)
Temperature  
Mean Temperature 46 °F -  
Max Temperature 59 °F 57 °F 72 °F (1979)
Min Temperature 33 °F 20 °F 6 °F (1997)
Degree Days  
Heating Degree Days 19    
Moisture  
Dew Point 30 °F    
Average Humidity 61    
Maximum Humidity 93    
Minimum Humidity 25    
Precipitation  
Precipitation 0.00 in - - ()
Sea Level Pressure  
Sea Level Pressure 30.37 in    
Wind  
Wind Speed 13 mph (NW)    
Max Wind Speed 20 mph    
Max Gust Speed 26 mph    
Visibility 10 miles    
Events      
Averages and records for this station are not official NWS values.
T = Trace of Precipitation, MM = Missing Value Source: NWS Daily Summary

Daily Weather History Graph

Daily Weather History Graph

Search for Another Location

Airport or City:

Trip Planner

Search our weather history database for the weather conditions in past years. The results will help you decide how hot, cold, wet, or windy it might be!

Date:

Astronomy

Oct. 26, 2013 Rise Set
Actual Time 7:24 AM MDT 6:12 PM MDT
Civil Twilight 6:57 AM MDT 6:39 PM MDT
Nautical Twilight 6:26 AM MDT 7:09 PM MDT
Astronomical Twilight 5:56 AM MDT 7:40 PM MDT
Moon No Moon Rise 1:41 PM MDT (10/26)
Length of Visible Light 11h 41m
Length of Day
10h 47m
Waning Gibbous, 52% of the Moon is Illuminated
Oct 26
Waning Gibbous
Oct 26
Last Quarter
Nov 3
New
Nov 9
First Quarter
Nov 17
Full

Hourly Weather History & Observations

Time (MDT) Temp. Windchill Dew Point Humidity Pressure Visibility Wind Dir Wind Speed Gust Speed Precip Events Conditions
12:12 AM 37.4 °F 28.5 °F 35.6 °F 93% 30.33 in 10.0 mi NNW 15.0 mph - N/A   Scattered Clouds
12:32 AM 37.4 °F 27.8 °F 33.8 °F 87% 30.33 in 10.0 mi NW 17.3 mph 23.0 mph N/A   Scattered Clouds
12:52 AM 37.4 °F 27.5 °F 35.6 °F 93% 30.33 in 10.0 mi NW 18.4 mph - N/A   Scattered Clouds
1:12 AM 37.4 °F 27.8 °F 35.6 °F 93% 30.33 in 10.0 mi NNW 17.3 mph 24.2 mph N/A   Scattered Clouds
1:32 AM 39.2 °F 29.8 °F 33.8 °F 81% 30.33 in 10.0 mi NNW 18.4 mph 25.3 mph N/A   Clear
1:52 AM 39.2 °F 29.8 °F 33.8 °F 81% 30.33 in 10.0 mi NW 18.4 mph 26.5 mph N/A   Scattered Clouds
2:12 AM 37.4 °F 29.8 °F 33.8 °F 87% 30.34 in 10.0 mi NW 11.5 mph 20.7 mph N/A   Scattered Clouds
2:32 AM 37.4 °F 27.8 °F 33.8 °F 87% 30.34 in 10.0 mi NW 17.3 mph 23.0 mph N/A   Scattered Clouds
2:52 AM 39.2 °F 32.5 °F 33.8 °F 81% 30.35 in 10.0 mi NNW 10.4 mph 18.4 mph N/A   Mostly Cloudy
3:12 AM 39.2 °F 32.0 °F 33.8 °F 81% 30.35 in 10.0 mi NNW 11.5 mph 20.7 mph N/A   Overcast
3:32 AM 39.2 °F 32.0 °F 32.0 °F 75% 30.35 in 10.0 mi NNW 11.5 mph - N/A   Overcast
3:52 AM 37.4 °F 28.5 °F 32.0 °F 81% 30.35 in 10.0 mi NNW 15.0 mph 19.6 mph N/A   Mostly Cloudy
4:12 AM 39.2 °F 32.0 °F 32.0 °F 75% 30.35 in 10.0 mi NNW 11.5 mph - N/A   Clear
4:32 AM 37.4 °F 30.3 °F 32.0 °F 81% 30.35 in 10.0 mi NNW 10.4 mph - N/A   Clear
4:52 AM 37.4 °F 27.8 °F 32.0 °F 81% 30.35 in 10.0 mi NNW 17.3 mph - N/A   Clear
5:12 AM 37.4 °F 27.2 °F 32.0 °F 81% 30.36 in 10.0 mi NW 19.6 mph 23.0 mph N/A   Scattered Clouds
5:32 AM 37.4 °F 27.5 °F 32.0 °F 81% 30.36 in 10.0 mi NW 18.4 mph 23.0 mph N/A   Scattered Clouds
5:52 AM 37.4 °F 29.3 °F 32.0 °F 81% 30.37 in 10.0 mi NNW 12.7 mph 21.9 mph N/A   Mostly Cloudy
6:11 AM 39.2 °F 30.2 °F 32.0 °F 75% 30.37 in 10.0 mi NNW 17.3 mph 23.0 mph N/A   Scattered Clouds
6:32 AM 37.4 °F 28.2 °F 32.0 °F 81% 30.38 in 10.0 mi NW 16.1 mph - N/A   Scattered Clouds
6:52 AM 35.6 °F 26.2 °F 32.0 °F 87% 30.38 in 10.0 mi NW 15.0 mph 20.7 mph N/A   Scattered Clouds
7:12 AM 37.4 °F 28.2 °F 32.0 °F 81% 30.38 in 10.0 mi NNW 16.1 mph 20.7 mph N/A   Mostly Cloudy
7:32 AM 35.6 °F 26.2 °F 32.0 °F 87% 30.39 in 10.0 mi NW 15.0 mph - N/A   Scattered Clouds
7:52 AM 35.6 °F 25.5 °F 30.2 °F 81% 30.39 in 10.0 mi NW 17.3 mph - N/A   Clear
8:11 AM 39.2 °F 29.8 °F 30.2 °F 70% 30.40 in 10.0 mi NNW 18.4 mph - N/A   Clear
8:32 AM 39.2 °F 30.8 °F 30.2 °F 70% 30.40 in 10.0 mi NNW 15.0 mph 23.0 mph N/A   Clear
8:52 AM 41.0 °F 31.9 °F 32.0 °F 70% 30.41 in 10.0 mi NW 19.6 mph - N/A   Clear
9:12 AM 42.8 °F 34.8 °F 32.0 °F 66% 30.42 in 10.0 mi NW 17.3 mph 23.0 mph N/A   Clear
9:32 AM 42.8 °F 34.5 °F 32.0 °F 66% 30.42 in 10.0 mi NW 18.4 mph 26.5 mph N/A   Clear
9:52 AM 42.8 °F 34.5 °F 32.0 °F 66% 30.42 in 10.0 mi NW 18.4 mph 25.3 mph N/A   Clear
10:12 AM 44.6 °F 36.6 °F 32.0 °F 61% 30.42 in 10.0 mi NNW 19.6 mph 25.3 mph N/A   Clear
10:31 AM 46.4 °F 39.2 °F 32.0 °F 57% 30.42 in 10.0 mi NW 18.4 mph - N/A   Clear
10:51 AM 48.2 °F - 33.8 °F 58% 30.42 in 10.0 mi NW 16.1 mph 25.3 mph N/A   Clear
11:12 AM 48.2 °F - 33.8 °F 58% 30.42 in 10.0 mi NW 13.8 mph 19.6 mph N/A   Clear
11:32 AM 50.0 °F - 33.8 °F 54% 30.42 in 10.0 mi NW 10.4 mph - N/A   Clear
11:52 AM 51.8 °F - 33.8 °F 50% 30.41 in 10.0 mi NW 11.5 mph - N/A   Clear
12:12 PM 53.6 °F - 32.0 °F 44% 30.41 in 10.0 mi NNW 6.9 mph - N/A   Clear
12:31 PM 53.6 °F - 28.4 °F 38% 30.40 in 10.0 mi NNW 4.6 mph - N/A   Clear
12:52 PM 55.4 °F - 26.6 °F 33% 30.40 in 10.0 mi Calm Calm - N/A   Clear
1:12 PM 55.4 °F - 24.8 °F 31% 30.39 in 10.0 mi South 6.9 mph - N/A   Clear
1:31 PM 55.4 °F - 19.4 °F 25% 30.38 in 10.0 mi Calm Calm - N/A   Clear
1:52 PM 57.2 °F - 23.0 °F 27% 30.37 in 10.0 mi WSW 4.6 mph - N/A   Clear
2:12 PM 57.2 °F - 24.8 °F 29% 30.36 in 10.0 mi South 3.5 mph - N/A   Clear
2:32 PM 57.2 °F - 24.8 °F 29% 30.36 in 10.0 mi West 4.6 mph - N/A   Clear
2:52 PM 57.2 °F - 24.8 °F 29% 30.36 in 10.0 mi South 4.6 mph - N/A   Clear
3:12 PM 59.0 °F - 24.8 °F 27% 30.35 in 10.0 mi West 4.6 mph - N/A   Clear
3:32 PM 57.2 °F - 21.2 °F 25% 30.35 in 10.0 mi West 3.5 mph - N/A   Clear
3:52 PM 57.2 °F - 23.0 °F 27% 30.35 in 10.0 mi SW 4.6 mph - N/A   Clear
4:12 PM 57.2 °F - 24.8 °F 29% 30.34 in 10.0 mi SSW 6.9 mph - N/A   Clear
4:32 PM 57.2 °F - 23.0 °F 27% 30.34 in 10.0 mi SSW 8.1 mph - N/A   Clear
4:52 PM 57.2 °F - 23.0 °F 27% 30.34 in 10.0 mi SSW 6.9 mph - N/A   Clear
5:12 PM 57.2 °F - 24.8 °F 29% 30.34 in 10.0 mi SSW 5.8 mph - N/A   Clear
5:32 PM 55.4 °F - 24.8 °F 31% 30.34 in 10.0 mi SSW 5.8 mph - N/A   Scattered Clouds
5:51 PM 53.6 °F - 24.8 °F 33% 30.34 in 10.0 mi SSW 6.9 mph - N/A   Scattered Clouds
6:12 PM 50.0 °F - 26.6 °F 40% 30.35 in 10.0 mi Calm Calm - N/A   Mostly Cloudy
6:31 PM 48.2 °F - 28.4 °F 46% 30.35 in 10.0 mi West 3.5 mph - N/A   Clear
6:52 PM 46.4 °F 45.2 °F 28.4 °F 50% 30.35 in 10.0 mi NW 3.5 mph - N/A   Clear
7:12 PM 42.8 °F 40.1 °F 30.2 °F 61% 30.36 in 10.0 mi NNE 4.6 mph - N/A   Clear
7:32 PM 41.0 °F 37.1 °F 30.2 °F 65% 30.36 in 10.0 mi NE 5.8 mph - N/A   Clear
7:52 PM 41.0 °F 39.0 °F 30.2 °F 65% 30.37 in 10.0 mi North 3.5 mph - N/A   Clear
8:12 PM 39.2 °F 32.5 °F 28.4 °F 65% 30.36 in 10.0 mi North 10.4 mph - N/A   Clear
8:32 PM 39.2 °F 35.9 °F 28.4 °F 65% 30.36 in 10.0 mi NW 4.6 mph - N/A   Clear
8:52 PM 39.2 °F 32.5 °F 28.4 °F 65% 30.36 in 10.0 mi North 10.4 mph - N/A   Clear
9:12 PM 39.2 °F 33.6 °F 28.4 °F 65% 30.36 in 10.0 mi NNW 8.1 mph - N/A   Clear
9:32 PM 39.2 °F 35.0 °F 26.6 °F 61% 30.37 in 10.0 mi North 5.8 mph - N/A   Clear
9:52 PM 37.4 °F 32.8 °F 28.4 °F 70% 30.37 in 10.0 mi NNE 5.8 mph - N/A   Clear
10:12 PM 37.4 °F 32.1 °F 28.4 °F 70% 30.37 in 10.0 mi NNE 6.9 mph - N/A   Clear
10:32 PM 37.4 °F 32.8 °F 26.6 °F 65% 30.38 in 10.0 mi North 5.8 mph - N/A   Clear
10:52 PM 37.4 °F 33.8 °F 26.6 °F 65% 30.37 in 10.0 mi NW 4.6 mph - N/A   Clear
11:12 PM 35.6 °F 30.7 °F 26.6 °F 70% 30.37 in 10.0 mi NNW 5.8 mph - N/A   Clear
11:32 PM 33.8 °F 27.0 °F 26.6 °F 75% 30.36 in 10.0 mi NNW 8.1 mph - N/A   Clear
11:52 PM 35.6 °F 27.1 °F 26.6 °F 70% 30.35 in 10.0 mi NNW 12.7 mph - N/A   Clear